When you browse on this site, cookies collect data to enhance your experience and personalize the content and advertising you see.
Visit our Privacy Policy to learn more. By continuing to use the site, you agree to this use of cookies and data.
  • In Deutschland
  • Länderverzeichnis
  • Für 7 Tage
  • Wassertemperatur
  • Wetterkarte
  • Widgets
  • user-avatar
    Anmelden

    Stündliche Wetter Luanda

    Heute, 16 Dezember, Montag

    Zeit Temperatur Niederschläge Wind Luftdruck Luftfeuchtigkeit
    00:00 +26°C° 0.1 mm 2 m/S 752 mmHg 81%
    01:00 +26°C° 0.1 mm 2 m/S 752 mmHg 81%
    02:00 +26°C° 0 mm 1 m/S 752 mmHg 82%
    03:00 +26°C° 0 mm 1 m/S 752 mmHg 82%
    04:00 +26°C° 0 mm 1 m/S 752 mmHg 83%
    05:00 +26°C° 0.1 mm 1 m/S 752 mmHg 82%
    06:00 +26°C° 0.1 mm 1 m/S 753 mmHg 81%
    07:00 +26°C° 0.1 mm 1 m/S 753 mmHg 80%
    08:00 +28°C° 0 mm 1 m/S 753 mmHg 72%
    09:00 +30°C° 0 mm 1 m/S 753 mmHg 64%
    10:00 +32°C° 0 mm 1 m/S 753 mmHg 56%
    11:00 +34°C° 0 mm 2 m/S 752 mmHg 54%
    12:00 +35°C° 0 mm 3 m/S 752 mmHg 51%
    13:00 +35°C° 0 mm 4 m/S 751 mmHg 49%
    14:00 +35°C° 0 mm 5 m/S 750 mmHg 52%
    15:00 +34°C° 0 mm 5 m/S 750 mmHg 54%
    16:00 +33°C° 0 mm 6 m/S 749 mmHg 57%
    17:00 +32°C° 0 mm 5 m/S 750 mmHg 61%
    18:00 +30°C° 0 mm 5 m/S 750 mmHg 66%
    19:00 +29°C° 0 mm 5 m/S 750 mmHg 70%
    20:00 +28°C° 0 mm 5 m/S 751 mmHg 72%
    21:00 +28°C° 0 mm 4 m/S 752 mmHg 73%
    22:00 +28°C° 0 mm 4 m/S 752 mmHg 75%
    23:00 +28°C° 0 mm 3 m/S 752 mmHg 75%

    Morgen, 17 Dezember, Dienstag

    Zeit Temperatur Niederschläge Wind Luftdruck Luftfeuchtigkeit
    00:00 +28°C° 0 mm 3 m/S 752 mmHg 76%
    01:00 +28°C° 0 mm 2 m/S 752 mmHg 77%
    02:00 +27°C° 0 mm 2 m/S 751 mmHg 78%
    03:00 +27°C° 0 mm 2 m/S 751 mmHg 79%
    04:00 +27°C° 0 mm 1 m/S 751 mmHg 81%
    05:00 +27°C° 0 mm 2 m/S 751 mmHg 80%
    06:00 +27°C° 0 mm 2 m/S 752 mmHg 80%
    07:00 +27°C° 0 mm 2 m/S 753 mmHg 79%
    08:00 +29°C° 0 mm 2 m/S 752 mmHg 72%
    09:00 +30°C° 0 mm 2 m/S 752 mmHg 65%
    10:00 +31°C° 0 mm 2 m/S 752 mmHg 59%
    11:00 +34°C° 0 mm 2 m/S 752 mmHg 54%
    12:00 +35°C° 0 mm 3 m/S 751 mmHg 50%
    13:00 +36°C° 0 mm 4 m/S 750 mmHg 45%
    14:00 +35°C° 0 mm 5 m/S 750 mmHg 49%
    15:00 +35°C° 0 mm 5 m/S 749 mmHg 53%
    16:00 +34°C° 0 mm 5 m/S 749 mmHg 56%
    17:00 +33°C° 0 mm 5 m/S 750 mmHg 62%
    18:00 +30°C° 0 mm 5 m/S 750 mmHg 69%
    19:00 +29°C° 0 mm 5 m/S 751 mmHg 75%
    20:00 +28°C° 0 mm 5 m/S 751 mmHg 76%
    21:00 +28°C° 0 mm 4 m/S 752 mmHg 78%
    22:00 +28°C° 0 mm 4 m/S 753 mmHg 80%
    23:00 +28°C° 0 mm 4 m/S 752 mmHg 81%

    übermorgen, 18 Dezember, Mittwoch

    Zeit Temperatur Niederschläge Wind Luftdruck Luftfeuchtigkeit
    00:00 +27°C° 0 mm 4 m/S 752 mmHg 82%
    01:00 +27°C° 0 mm 3 m/S 752 mmHg 83%
    02:00 +27°C° 0 mm 3 m/S 752 mmHg 84%
    03:00 +27°C° 0 mm 3 m/S 752 mmHg 85%
    04:00 +26°C° 0 mm 3 m/S 751 mmHg 87%
    05:00 +27°C° 0 mm 3 m/S 752 mmHg 84%
    06:00 +27°C° 0 mm 2 m/S 752 mmHg 82%
    07:00 +28°C° 0 mm 2 m/S 753 mmHg 80%
    08:00 +29°C° 0 mm 2 m/S 753 mmHg 72%
    09:00 +31°C° 0 mm 2 m/S 753 mmHg 63%
    10:00 +32°C° 0 mm 2 m/S 753 mmHg 55%
    11:00 +33°C° 0 mm 3 m/S 752 mmHg 55%
    12:00 +33°C° 0 mm 4 m/S 751 mmHg 55%
    13:00 +33°C° 0 mm 5 m/S 751 mmHg 56%
    14:00 +33°C° 0 mm 5 m/S 750 mmHg 55%
    15:00 +33°C° 0 mm 5 m/S 750 mmHg 55%
    16:00 +33°C° 0 mm 5 m/S 750 mmHg 54%
    17:00 +32°C° 0 mm 4 m/S 750 mmHg 61%
    18:00 +30°C° 0 mm 4 m/S 751 mmHg 68%
    19:00 +28°C° 0 mm 4 m/S 751 mmHg 75%
    20:00 +28°C° 0 mm 4 m/S 752 mmHg 77%
    21:00 +27°C° 0 mm 4 m/S 752 mmHg 80%
    22:00 +27°C° 0 mm 4 m/S 753 mmHg 83%
    23:00 +27°C° 0 mm 4 m/S 753 mmHg 84%

    19 Dezember, Donnerstag

    Zeit Temperatur Niederschläge Wind Luftdruck Luftfeuchtigkeit
    00:00 +26°C° 0 mm 3 m/S 752 mmHg 86%
    01:00 +26°C° 0 mm 3 m/S 752 mmHg 88%
    02:00 +26°C° 0 mm 2 m/S 752 mmHg 88%
    03:00 +26°C° 0 mm 2 m/S 752 mmHg 88%
    04:00 +26°C° 0 mm 2 m/S 752 mmHg 89%
    05:00 +26°C° 0 mm 2 m/S 753 mmHg 86%
    06:00 +27°C° 0 mm 1 m/S 753 mmHg 83%
    07:00 +27°C° 0 mm 1 m/S 753 mmHg 80%
    08:00 +29°C° 0 mm 1 m/S 754 mmHg 73%
    09:00 +30°C° 0 mm 1 m/S 754 mmHg 65%
    10:00 +31°C° 0 mm 1 m/S 754 mmHg 58%
    11:00 +32°C° 0 mm 2 m/S 753 mmHg 55%
    12:00 +34°C° 0 mm 3 m/S 752 mmHg 51%
    13:00 +35°C° 0 mm 3 m/S 752 mmHg 48%
    14:00 +34°C° 0 mm 4 m/S 751 mmHg 50%
    15:00 +34°C° 0 mm 4 m/S 751 mmHg 51%
    16:00 +33°C° 0 mm 5 m/S 751 mmHg 53%
    17:00 +32°C° 0 mm 4 m/S 751 mmHg 59%
    18:00 +30°C° 0 mm 4 m/S 752 mmHg 66%
    19:00 +28°C° 0 mm 4 m/S 752 mmHg 72%
    20:00 +28°C° 0 mm 3 m/S 753 mmHg 74%
    21:00 +28°C° 0 mm 3 m/S 753 mmHg 76%
    22:00 +27°C° 0 mm 3 m/S 754 mmHg 78%
    23:00 +27°C° 0 mm 3 m/S 754 mmHg 78%

    20 Dezember, Freitag

    Zeit Temperatur Niederschläge Wind Luftdruck Luftfeuchtigkeit
    00:00 +27°C° 0 mm 3 m/S 754 mmHg 78%
    01:00 +27°C° 0 mm 3 m/S 753 mmHg 78%
    02:00 +27°C° 0 mm 2 m/S 753 mmHg 78%
    03:00 +27°C° 0 mm 2 m/S 753 mmHg 79%
    04:00 +27°C° 0 mm 2 m/S 753 mmHg 79%
    05:00 +27°C° 0 mm 2 m/S 753 mmHg 79%
    06:00 +27°C° 0 mm 2 m/S 754 mmHg 78%
    07:00 +27°C° 0 mm 2 m/S 754 mmHg 78%
    08:00 +29°C° 0 mm 2 m/S 754 mmHg 70%
    09:00 +30°C° 0 mm 1 m/S 754 mmHg 62%
    10:00 +32°C° 0 mm 1 m/S 754 mmHg 55%
    11:00 +34°C° 0 mm 2 m/S 754 mmHg 54%
    12:00 +34°C° 0 mm 3 m/S 753 mmHg 53%
    13:00 +34°C° 0 mm 4 m/S 752 mmHg 52%
    14:00 +34°C° 0 mm 4 m/S 752 mmHg 53%
    15:00 +34°C° 0 mm 4 m/S 751 mmHg 53%
    16:00 +34°C° 0 mm 4 m/S 751 mmHg 54%
    17:00 +32°C° 0 mm 4 m/S 751 mmHg 60%
    18:00 +30°C° 0 mm 5 m/S 752 mmHg 66%
    19:00 +28°C° 0 mm 5 m/S 752 mmHg 73%
    20:00 +28°C° 0 mm 4 m/S 752 mmHg 75%
    21:00 +28°C° 0 mm 4 m/S 753 mmHg 77%
    22:00 +27°C° 0 mm 4 m/S 753 mmHg 79%
    23:00 +27°C° 0 mm 4 m/S 753 mmHg 80%

    21 Dezember, Samstag

    Zeit Temperatur Niederschläge Wind Luftdruck Luftfeuchtigkeit
    00:00 +27°C° 0 mm 4 m/S 753 mmHg 81%
    01:00 +27°C° 0 mm 4 m/S 753 mmHg 82%
    02:00 +26°C° 0 mm 3 m/S 752 mmHg 83%
    03:00 +26°C° 0 mm 3 m/S 752 mmHg 84%
    04:00 +26°C° 0 mm 2 m/S 752 mmHg 85%
    05:00 +26°C° 0 mm 2 m/S 753 mmHg 83%
    06:00 +26°C° 0 mm 2 m/S 753 mmHg 81%
    07:00 +27°C° 0 mm 2 m/S 753 mmHg 80%
    08:00 +28°C° 0 mm 2 m/S 753 mmHg 75%
    09:00 +29°C° 0 mm 2 m/S 753 mmHg 69%
    10:00 +30°C° 0 mm 1 m/S 753 mmHg 64%
    11:00 +31°C° 0 mm 2 m/S 753 mmHg 58%
    12:00 +34°C° 0 mm 2 m/S 752 mmHg 51%
    13:00 +36°C° 0 mm 2 m/S 752 mmHg 44%
    14:00 +35°C° 0 mm 3 m/S 751 mmHg 49%
    15:00 +34°C° 0 mm 5 m/S 751 mmHg 55%
    16:00 +33°C° 0 mm 6 m/S 750 mmHg 60%
    17:00 +30°C° 0 mm 5 m/S 751 mmHg 65%
    18:00 +29°C° 0 mm 5 m/S 751 mmHg 71%
    19:00 +28°C° 0 mm 5 m/S 751 mmHg 76%
    20:00 +28°C° 0 mm 5 m/S 752 mmHg 78%
    21:00 +27°C° 0 mm 4 m/S 752 mmHg 80%
    22:00 +27°C° 0 mm 3 m/S 753 mmHg 82%
    23:00 +27°C° 0 mm 3 m/S 753 mmHg 83%
    Mehr zeigen